Regional Weather Roundup
Issued by NWS

Home | Current Version | Previous Version | Text Only | Print | Product List | Glossary On
Versions: 1 2 3 4 5 6 7 8 9 10 11 12 13 14 15 16 17 18 19 20 21 22 23 24 25 26 27 28 29 30 31 32 33 34 35 36 37 38 39 40 41 42 43 44 45 46 47 48 49 50
000
ASUS46 KPQR 252110
RWROR

OREGON REGIONAL WEATHER ROUNDUP
NATIONAL WEATHER SERVICE PORTLAND OR
100 PM PST SAT FEB 25 2017

NOTE: "FAIR" INDICATES FEW OR NO CLOUDS BELOW 12,000 FEET WITH
NO SIGNIFICANT WEATHER AND/OR OBSTRUCTIONS TO VISIBILITY.

ORZ001>013-252200-
NORTHWEST OREGON


CITY           SKY/WX    TMP DP  RH WIND       PRES   REMARKS
ASTORIA        MOSUNNY   44  34  67 N8        30.22F
NEWPORT        SUNNY     45  37  76 NW8       30.26F
PORTLAND       MOSUNNY   44  32  62 NW3       30.23F
VANCOUVER WA   SUNNY     42  34  73 SW3       30.23F
SCAPPOOSE      MOSUNNY   41  37  86 SE5       30.22F
HILLSBORO      MOSUNNY   45  32  60 CALM      30.21F
AURORA         MOSUNNY   46  32  58 CALM      30.23F
MCMINNVILLE    MOSUNNY   45  34  65 CALM      30.23F
SALEM          MOSUNNY   45  33  63 CALM      30.22F
CORVALLIS        N/A     39  36  87 W3        30.25F
EUGENE         MOSUNNY   45  36  70 VRB5      30.23F
$$

ORZ021-028-252200-
SOUTHWEST OREGON


CITY           SKY/WX    TMP DP  RH WIND       PRES   REMARKS
NORTH BEND     SUNNY     48  41  76 W6        30.23F
BROOKINGS      SUNNY     49  36  61 NE7       30.17F
ROSEBURG       MOSUNNY   39  34  82 SW5       30.23F
SEXTON SUMMIT  CLOUDY    30  29  96 VRB5      30.08F WCI  25
MEDFORD        SUNNY     44  31  60 VRB5      30.17F
$$

ORZ014>016-041-252200-
COLUMBIA GORGE


CITY           SKY/WX    TMP DP  RH WIND       PRES   REMARKS
TROUTDALE      SUNNY     45  30  55 NW6       30.23F
THE DALLES     SUNNY     44  27  51 S5        30.17F
$$

ORZ029>031-041-044-049-050-061>064-502-503-505>511-252200-
EASTERN OREGON


CITY           SKY/WX    TMP DP  RH WIND       PRES   REMARKS
REDMOND        SUNNY     39  16  39 CALM      30.08F
BEND           SUNNY     39  19  45 S5G12     30.07F
PRINEVILLE     PTSUNNY   37  21  52 CALM      30.08F
KLAMATH FALLS  CLOUDY    35  23  61 CALM      30.08F
LAKEVIEW       CLOUDY    36  19  51 W3        30.07F
HERMISTON      SUNNY     44  29  55 W5        30.14F
PENDLETON      SUNNY     40  27  59 NW10      30.11F WCI  33
JOHN DAY       SUNNY     38  19  46 CALM      30.05F
MEACHAM        CLOUDY    31  17  56 CALM      30.02F
LA GRANDE      PTSUNNY   37  19  48 CALM      30.05F
BAKER CITY     MOSUNNY   35  17  47 SE6       30.04F WCI  30
BURNS          SUNNY     26  15  63 SE3       30.07F
ROME             N/A     31  19  61 S6        30.07F WCI  25
ONTARIO        SUNNY     32  17  54 CALM      30.15F
$$



USA.gov is the U.S. government's official web portal to all federal, state and local government web resources and services.